#timestamp,LO_Frequency,Hit,StdDev 
1682445615.3,286046996.5,N
1682445635.2,286046997.0,N
1682445655.0,286046995.8,N
1682445655.9,286046995.8,N
1682445675.8,286046996.0,Y
1682445695.6,286046999.5,P
1682445715.4,286046998.2,N
1682445735.3,286047004.0,N
1682445755.1,286047004.0,N
1682445775.8,286047002.7,N
1682445795.7,286047003.9,N
1682445815.5,286047003.4,N
1682445835.4,286047003.2,N
1682445855.2,286047003.7,N
1682445875.0,286047001.4,N
1682445875.9,286047011.9,Y
1682445895.8,286047001.4,P
1682445915.6,286047007.1,P
1682445935.5,286047006.4,N
1682445955.3,286047008.0,Y
1682445975.1,286047009.1,P
1682445995.9,286047005.6,N
1682446015.7,286047012.4,P
1682446035.5,286047009.1,N
1682446055.4,286047007.6,N
1682446075.2,286047003.2,N
1682446095.1,286047004.3,N
1682446096.0,286047004.3,N
1682446115.8,286047003.8,N
1682446135.6,286047005.6,N
1682446155.5,286047006.6,N
1682446175.3,286047007.7,N
1682446195.1,286047010.4,Y
1682446215.9,286047003.4,P
1682446235.7,286046995.1,P
1682446255.6,286046996.0,N
1682446275.4,286046998.0,N
1682446295.2,286046994.4,N
1682446315.1,286046996.6,N
1682446316.0,286046996.6,N
1682446335.8,286047000.1,N
1682446355.6,286047002.2,N
1682446375.5,286046997.5,N
1682446395.3,286046992.0,N
1682446415.2,286046997.1,N
1682446435.9,286047002.6,N
1682446455.7,286047000.4,N
1682446475.6,286047001.0,N
1682446495.4,286046998.2,N
1682446515.2,286047000.0,N
1682446535.1,286046997.5,N
1682446536.0,286046997.5,N
1682446555.8,286046994.9,N
1682446575.7,286046993.8,N
1682446595.5,286046993.5,N
1682446615.3,286046994.5,N
1682446635.2,286046993.3,N
1682446655.0,286046994.0,N
1682446655.9,286046994.0,N
1682446675.7,286046997.1,N
1682446695.6,286046997.6,N
1682446715.4,286046997.7,N
1682446735.3,286046995.3,N
1682446755.1,286046993.7,N
1682446756.0,286046993.7,N
1682446775.8,286046993.4,N
1682446795.7,286046995.5,N
1682446815.5,286046995.6,N
1682446835.3,286046999.4,N
1682446855.2,286046995.6,N
1682446875.0,286046996.6,N
1682446875.9,286046996.6,N
1682446895.8,286046997.3,N
1682446915.6,286046998.3,N
1682446935.4,286046997.7,N
1682446955.3,286046996.9,N
1682446975.1,286047002.8,N
1682446995.9,286047000.6,N
1682447015.7,286046998.1,N
1682447035.5,286047002.2,N
1682447055.4,286047004.4,N
1682447075.2,286047006.6,N
1682447095.1,286047007.0,N
1682447096.0,286047007.0,N
1682447115.8,286047007.8,N
1682447135.6,286047010.9,N
1682447155.5,286047011.8,N
1682447175.3,286047010.3,N
1682447195.1,286047007.8,N
1682447215.9,286047008.0,N
1682447235.7,286047020.4,Y
1682447255.6,286047022.9,P
1682447275.4,286047015.8,N
1682447295.2,286047013.0,N
1682447315.1,286047009.5,N
1682447316.0,286047009.5,N
1682447335.8,286047016.2,N
1682447355.6,286047016.8,N
1682447375.5,286047011.7,N
1682447395.3,286047007.6,N
1682447415.2,286047004.3,N
1682447435.9,286047003.2,N
1682447455.7,286047004.2,N
1682447475.6,286046999.7,N
1682447495.4,286047004.0,N
1682447515.2,286047005.1,N
1682447535.1,286047002.9,N
1682447536.0,286047002.9,N
1682447555.8,286047005.8,N
1682447575.7,286047006.3,N
1682447595.5,286047004.5,N
1682447615.3,286047008.0,N
1682447635.2,286047012.1,N
1682447655.0,286047013.4,N
1682447655.9,286047013.4,N
1682447675.7,286047007.9,N
1682447695.6,286047008.8,N
1682447715.4,286047012.4,N
1682447735.3,286047017.1,Y
1682447755.1,286047005.0,P
1682447775.8,286047009.9,P
1682447795.7,286047007.6,P
1682447815.5,286047006.8,Y
1682447835.4,286046998.6,P
1682447855.2,286047002.4,N
1682447875.0,286046999.4,N
1682447875.9,286046999.4,N
1682447895.8,286046997.3,N
1682447915.6,286047001.9,N
1682447935.4,286046995.5,N
1682447955.3,286046994.7,N
1682447975.1,286046996.2,N
1682447995.9,286046993.0,N
1682448015.7,286046993.4,N
1682448035.5,286046995.8,N
1682448055.4,286046992.6,N
1682448075.2,286046993.3,N
1682448095.0,286046999.3,N
1682448095.9,286046999.3,N
1682448115.8,286047003.7,N
1682448135.6,286046999.0,N
1682448155.4,286047001.5,N
1682448175.3,286046996.1,N
1682448195.1,286046999.2,N
1682448215.9,286047002.0,N
1682448235.7,286047000.0,N
1682448255.5,286046998.1,N
1682448275.4,286046999.4,N
1682448295.2,286046999.9,N
1682448315.0,286046998.4,N
1682448315.9,286046998.4,N
1682448335.8,286047004.4,N
1682448355.6,286047003.7,N
1682448375.5,286047001.7,N
1682448395.3,286047005.6,N
1682448415.1,286047012.3,Y
1682448435.9,286047017.0,P
1682448455.7,286047018.4,N
1682448475.5,286047014.5,N
1682448495.4,286047008.4,N
1682448515.2,286047007.7,N
1682448535.1,286047006.6,N
1682448536.0,286047006.6,N
1682448555.8,286047011.9,N
1682448575.6,286047013.7,N
1682448595.5,286047017.1,Y
1682448615.3,286047008.3,P
1682448635.2,286047008.4,P
1682448655.9,286047011.4,P
1682448675.7,286047009.6,Y
1682448695.6,286046992.6,P
1682448715.4,286046987.1,N
1682448735.2,286046986.4,N
1682448755.1,286046987.1,N
1682448756.0,286046987.1,N
1682448775.8,286046994.5,N
1682448795.7,286046995.8,N
1682448815.5,286046996.2,N
1682448835.3,286046993.9,N
1682448855.2,286046996.2,N
1682448875.0,286046994.3,N
1682448875.9,286046994.3,N
1682448895.7,286046995.9,N
1682448915.6,286046992.7,N
1682448935.4,286046992.4,N
1682448955.3,286046994.2,N
1682448975.1,286046992.2,N
1682448976.0,286046992.2,N
1682448995.8,286046995.9,N
1682449015.7,286046995.1,N
1682449035.5,286046993.5,N
1682449055.3,286046994.7,N
1682449075.2,286046990.8,N
1682449095.0,286046988.5,N
1682449095.9,286046988.5,N
1682449115.8,286046998.0,N
1682449135.6,286046999.5,N
1682449155.4,286046996.9,N
1682449175.3,286046996.8,N
1682449195.1,286046999.0,N
